This is the latest recevied weather packets stored in our database for station/object W1CAT. If no packets are shown the sender has not sent any weather packets the latest 10 day(s).
| Time | Temp. | Humidity | Pressure | Rain* | Wind** | Luminosity | Snow |
|---|---|---|---|---|---|---|---|
| 1777829478 | 17.78° C | 26% | - | 0 mm | - | - | - |
| 1777829175 | 17.78° C | 25% | - | 0 mm | - | - | - |
| 1777828872 | 18.33° C | 27% | - | 0 mm | - | - | - |
| 1777828569 | 17.22° C | 26% | - | 0 mm | - | - | - |
| 1777828266 | 17.78° C | 26% | - | 0 mm | - | - | - |
| 1777827963 | 17.22° C | 28% | - | 0 mm | - | - | - |
| 1777827659 | 17.78° C | 27% | - | 0 mm | - | - | - |
| 1777827356 | 17.22° C | 28% | - | 0 mm | - | - | - |
| 1777827053 | 16.11° C | 30% | - | 0 mm | - | - | - |
| 1777826749 | 15° C | 32% | - | 0 mm | - | - | - |
| 1777826446 | 15.56° C | 29% | - | 0 mm | - | - | - |
| 1777826143 | 16.11° C | 29% | - | 0 mm | - | - | - |
| 1777825840 | 15° C | 33% | - | 0 mm | - | - | - |
| 1777825537 | 15.56° C | 34% | - | 0 mm | - | - | - |
| 1777825235 | 15.56° C | 33% | - | 0 mm | - | - | - |
| 1777824932 | 15° C | 35% | - | 0 mm | - | - | - |
| 1777824628 | 14.44° C | 35% | - | 0 mm | - | - | - |
| 1777824325 | 13.89° C | 37% | - | 0 mm | - | - | - |
| 1777824021 | 13.33° C | 37% | - | 0 mm | - | - | - |
| 1777823717 | 13.33° C | 37% | - | 0 mm | - | - | - |
| 1777823414 | 13.33° C | 37% | - | 0 mm | - | - | - |
| 1777823112 | 12.78° C | 37% | - | 0 mm | - | - | - |
| 1777822809 | 12.78° C | 39% | - | 0 mm | - | - | - |
| 1777822507 | 12.22° C | 40% | - | 0 mm | - | - | - |
| 1777822204 | 12.22° C | 37% | - | 0 mm | - | - | - |
* Rain latest hour (hover to see other rain measurements)
** Current wind speed in m/s (hover to see current wind gust speed)